Weather History for KCCU - May, 2013

Change the Weather History Date:

Monday, May 6, 2013

  Actual Average (KLXV) Record (KLXV)
Temperature  
Mean Temperature 37 °F -  
Max Temperature 42 °F 51 °F 64 °F (2004)
Min Temperature 32 °F 25 °F 9 °F (1999)
Degree Days  
Heating Degree Days 28 27  
Month to date heating degree days 169  
Since 1 July heating degree days 10170  
Cooling Degree Days 0 0  
Month to date cooling degree days 0  
Year to date cooling degree days 0  
Moisture  
Dew Point 26 °F    
Average Humidity 72    
Maximum Humidity 87    
Minimum Humidity 45    
Precipitation  
Precipitation 0.01 in 0.03 in 0.29 in (2013)
Month to date precipitation 0.19  
Year to date precipitation 3.52  
Sea Level Pressure  
Sea Level Pressure 30.22 in    
Wind  
Wind Speed 14 mph (SSE)    
Max Wind Speed 25 mph    
Max Gust Speed 29 mph    
Visibility 7 miles    
Events Snow , Thunderstorm    
T = Trace of Precipitation, MM = Missing Value Source: NWS Daily Summary

Daily Weather History Graph

Daily Weather History Graph

Search for Another Location

Airport or City:

Trip Planner

Search our weather history database for the weather conditions in past years. The results will help you decide how hot, cold, wet, or windy it might be!

Date:

Astronomy

May. 06, 2013 Rise Set
Actual Time 5:59 AM MDT 8:03 PM MDT
Civil Twilight 5:29 AM MDT 8:33 PM MDT
Nautical Twilight 4:53 AM MDT 9:09 PM MDT
Astronomical Twilight 4:14 AM MDT 9:48 PM MDT
Moon 4:02 AM MDT (5/6) 5:07 PM MDT (5/6)
Length of Visible Light 15h 03m
Length of Day
14h 04m
Waning Crescent, 10% of the Moon is Illuminated
May 6
Waning Crescent
May 9
New
May 17
First Quarter
May 24
Full
May 31
Last Quarter

Hourly Weather History & Observations

Time (MDT) Temp. Windchill Dew Point Humidity Pressure Visibility Wind Dir Wind Speed Gust Speed Precip Events Conditions
12:12 AM 33.8 °F 21.3 °F 21.2 °F 60% 30.28 in 10.0 mi South 24.2 mph - N/A   Clear
12:32 AM 33.8 °F 21.3 °F 21.2 °F 60% 30.28 in 10.0 mi South 24.2 mph - N/A   Clear
12:52 AM 33.8 °F 21.0 °F 21.2 °F 60% 30.28 in 10.0 mi South 25.3 mph - N/A   Mostly Cloudy
1:12 AM 33.8 °F 22.5 °F 21.2 °F 60% 30.27 in 10.0 mi South 19.6 mph - N/A   Mostly Cloudy
1:32 AM 33.8 °F 21.0 °F 21.2 °F 60% 30.27 in 10.0 mi South 25.3 mph - N/A   Scattered Clouds
1:52 AM 33.8 °F 23.2 °F 21.2 °F 60% 30.27 in 10.0 mi South 17.3 mph - N/A   Clear
2:12 AM 33.8 °F 23.2 °F 21.2 °F 60% 30.26 in 10.0 mi South 17.3 mph - N/A   Clear
2:32 AM 33.8 °F 24.3 °F 21.2 °F 60% 30.26 in 10.0 mi South 13.8 mph 17.3 mph N/A   Clear
2:52 AM 33.8 °F 23.5 °F 21.2 °F 60% 30.25 in 10.0 mi South 16.1 mph - N/A   Clear
3:12 AM 33.8 °F 23.5 °F 21.2 °F 60% 30.25 in 10.0 mi South 16.1 mph - N/A   Clear
3:32 AM 33.8 °F 23.5 °F 21.2 °F 60% 30.25 in 10.0 mi South 16.1 mph - N/A   Clear
3:52 AM 33.8 °F 23.9 °F 23.0 °F 65% 30.26 in 10.0 mi South 15.0 mph - N/A   Clear
4:12 AM 33.8 °F 23.9 °F 23.0 °F 65% 30.26 in 10.0 mi South 15.0 mph - N/A   Clear
4:32 AM 33.8 °F 23.5 °F 23.0 °F 65% 30.26 in 10.0 mi South 16.1 mph - N/A   Scattered Clouds
4:52 AM 33.8 °F 23.9 °F 23.0 °F 65% 30.25 in 10.0 mi South 15.0 mph - N/A   Scattered Clouds
5:12 AM 33.8 °F 23.5 °F 23.0 °F 65% 30.25 in 10.0 mi South 16.1 mph - N/A   Clear
5:32 AM 33.8 °F 23.5 °F 23.0 °F 65% 30.25 in 10.0 mi South 16.1 mph - N/A   Mostly Cloudy
5:52 AM 33.8 °F 24.8 °F 23.0 °F 65% 30.25 in 10.0 mi South 12.7 mph - N/A   Mostly Cloudy
6:12 AM 33.8 °F 24.3 °F 23.0 °F 65% 30.25 in 10.0 mi South 13.8 mph - N/A   Mostly Cloudy
6:32 AM 33.8 °F 25.8 °F 23.0 °F 65% 30.25 in 10.0 mi SSW 10.4 mph - N/A   Overcast
6:52 AM 33.8 °F 26.4 °F 23.0 °F 65% 30.26 in 10.0 mi SSW 9.2 mph - N/A   Overcast
7:12 AM 33.8 °F 24.3 °F 23.0 °F 65% 30.26 in 10.0 mi South 13.8 mph - N/A   Overcast
7:32 AM 33.8 °F 23.9 °F 23.0 °F 65% 30.27 in 10.0 mi South 15.0 mph - N/A   Overcast
7:52 AM 33.8 °F - 24.8 °F 70% 30.27 in 5.0 mi Calm Calm - N/A Snow Light Snow
8:12 AM 33.8 °F 29.6 °F 26.6 °F 75% 30.27 in 4.0 mi West 4.6 mph - N/A   Overcast
8:32 AM 33.8 °F 27.7 °F 28.4 °F 81% 30.27 in 3.0 mi West 6.9 mph - N/A Snow Light Snow
8:52 AM 32.0 °F 24.2 °F 26.6 °F 80% 30.27 in 1.0 mi West 9.2 mph - N/A Snow Light Snow
9:12 AM 33.8 °F 29.6 °F 30.2 °F 87% 30.27 in 1.0 mi West 4.6 mph - N/A Snow Light Snow
9:32 AM 33.8 °F 29.6 °F 28.4 °F 81% 30.27 in 1.8 mi West 4.6 mph - 0.01 in Snow Light Snow
9:52 AM 33.8 °F - 28.4 °F 81% 30.26 in 1.5 mi Calm Calm - 0.01 in Snow Light Snow
10:12 AM 35.6 °F - 28.4 °F 75% 30.26 in 7.0 mi Calm Calm - N/A   Mostly Cloudy
10:32 AM 37.4 °F 33.8 °F 28.4 °F 70% 30.26 in 10.0 mi East 4.6 mph - N/A   Scattered Clouds
10:52 AM 37.4 °F 32.8 °F 26.6 °F 65% 30.25 in 10.0 mi ESE 5.8 mph - N/A   Scattered Clouds
11:12 AM 37.4 °F 32.8 °F 26.6 °F 65% 30.25 in 10.0 mi East 5.8 mph - N/A   Scattered Clouds
11:32 AM 37.4 °F 29.8 °F 24.8 °F 60% 30.24 in 10.0 mi ENE 11.5 mph 17.3 mph N/A   Mostly Cloudy
11:52 AM 41.0 °F 34.7 °F 26.6 °F 57% 30.23 in 10.0 mi ESE 10.4 mph 16.1 mph N/A   Mostly Cloudy
12:07 PM 41.0 °F 33.1 °F 24.8 °F 53% 30.22 in 10.0 mi East 15.0 mph 19.6 mph N/A   Mostly Cloudy
1:12 PM 41.0 °F 35.2 °F 21.2 °F 45% 30.21 in 10.0 mi ESE 9.2 mph - N/A   Mostly Cloudy
1:32 PM 41.0 °F 33.5 °F 23.0 °F 49% 30.20 in 10.0 mi East 13.8 mph 19.6 mph N/A   Overcast
1:52 PM 42.8 °F 37.0 °F 23.0 °F 46% 30.20 in 10.0 mi ESE 10.4 mph 24.2 mph N/A   Scattered Clouds
2:12 PM 41.0 °F 32.2 °F 23.0 °F 49% 30.19 in 10.0 mi SSE 18.4 mph - N/A   Scattered Clouds
2:32 PM 42.8 °F 37.0 °F 23.0 °F 46% 30.19 in 10.0 mi SE 10.4 mph 17.3 mph N/A Thunderstorm Thunderstorm
2:52 PM 37.4 °F 28.9 °F 30.2 °F 75% 30.18 in 10.0 mi East 13.8 mph 28.8 mph N/A   Mostly Cloudy
3:12 PM 37.4 °F 29.3 °F 30.2 °F 75% 30.18 in 10.0 mi East 12.7 mph 23.0 mph N/A   Mostly Cloudy
3:32 PM 37.4 °F 27.5 °F 30.2 °F 75% 30.17 in 7.0 mi East 18.4 mph 21.9 mph N/A Thunderstorm Overcast
3:52 PM 33.8 °F 25.3 °F 30.2 °F 87% 30.18 in 0.2 mi East 11.5 mph 20.7 mph N/A Snow , Thunderstorm Snow
4:12 PM 33.8 °F 28.6 °F 30.2 °F 87% 30.18 in 0.2 mi East 5.8 mph 11.5 mph N/A Snow , Thunderstorm Snow
4:52 PM 33.8 °F 28.6 °F 30.2 °F 87% 30.18 in 0.2 mi East 5.8 mph - N/A Snow , Thunderstorm Heavy Thunderstorms and Snow
5:12 PM 33.8 °F 26.4 °F 30.2 °F 87% 30.18 in 0.2 mi East 9.2 mph - N/A Snow Light Snow
5:32 PM 33.8 °F 25.3 °F 30.2 °F 87% 30.18 in 1.5 mi ENE 11.5 mph 16.1 mph N/A Snow Light Snow
5:52 PM 33.8 °F 27.0 °F 30.2 °F 87% 30.18 in 0.2 mi East 8.1 mph - N/A Snow Light Snow
6:12 PM 33.8 °F 27.0 °F 30.2 °F 87% 30.18 in 0.8 mi East 8.1 mph - N/A Snow Light Snow
6:32 PM 33.8 °F 27.7 °F 30.2 °F 87% 30.17 in 0.2 mi East 6.9 mph - N/A Snow Light Snow
6:52 PM 33.8 °F 28.6 °F 30.2 °F 87% 30.17 in 0.2 mi East 5.8 mph - N/A Snow , Thunderstorm Snow
7:12 PM 33.8 °F 25.8 °F 30.2 °F 87% 30.17 in 0.2 mi ESE 10.4 mph - N/A Snow Snow
7:32 PM 33.8 °F 30.8 °F 30.2 °F 87% 30.17 in 0.2 mi ESE 3.5 mph - N/A Snow Snow
7:52 PM 33.8 °F 29.6 °F 30.2 °F 87% 30.17 in 1.2 mi SE 4.6 mph - N/A Snow Light Snow
8:12 PM 33.8 °F 28.6 °F 30.2 °F 87% 30.18 in 7.0 mi South 5.8 mph - N/A Snow , Thunderstorm Light Thunderstorms and Snow
8:32 PM 33.8 °F 28.6 °F 30.2 °F 87% 30.18 in 10.0 mi SSW 5.8 mph - N/A Snow Light Snow
8:52 PM 33.8 °F 27.7 °F 28.4 °F 81% 30.18 in 3.0 mi SSE 6.9 mph - N/A Snow Light Snow
9:12 PM 33.8 °F 28.6 °F 30.2 °F 87% 30.18 in 10.0 mi SSW 5.8 mph - N/A Snow Light Snow
9:32 PM 33.8 °F 27.7 °F 28.4 °F 81% 30.19 in 5.0 mi South 6.9 mph - N/A Snow Light Snow
9:52 PM 33.8 °F 28.6 °F 28.4 °F 81% 30.19 in 10.0 mi SSE 5.8 mph - N/A   Mostly Cloudy
10:12 PM 33.8 °F 26.4 °F 28.4 °F 81% 30.19 in 10.0 mi South 9.2 mph - N/A   Scattered Clouds
10:32 PM 33.8 °F 28.6 °F 28.4 °F 81% 30.19 in 10.0 mi SSW 5.8 mph - N/A   Mostly Cloudy
10:52 PM 33.8 °F 25.3 °F 28.4 °F 81% 30.19 in 10.0 mi South 11.5 mph - N/A   Overcast
11:12 PM 33.8 °F 30.8 °F 28.4 °F 81% 30.20 in 7.0 mi SW 3.5 mph - N/A   Overcast
11:32 PM 33.8 °F 27.7 °F 30.2 °F 87% 30.20 in 1.8 mi West 6.9 mph - N/A Snow Light Snow
11:52 PM 32.0 °F 23.6 °F 28.4 °F 87% 30.20 in 0.2 mi SW 10.4 mph 23.0 mph N/A Snow Snow